Location: Bailleul
(50.3375°N, 2.8513°E)
Time: 20:58:50
(UTC+00:00)

Cosmos 2263 Rocket - Pass Details

Date: 19 April 2021
Orbit: 824 x 848 km, 71.0° (Epoch: 18 May)

Event Time Altitude Azimuth Distance (km) Brightness Sun altitude
Exits shadow 23:07:24 89° 301° (WNW) 832 2.0 -27.5°
Drops below altitude 10° 23:13:00 10° 29° (NNE) 2,438 5.2 -27.7°
Sets 23:15:26 0° 30° (NNE) 3,378 6.1 -27.7°
